H-2A R/B

Last updated on Sun Dec 07 2025 00:02:16 GMT+0000 (Coordinated Universal Time)

1 43682U 18084L 25340.63878777 .00029269 00000+0 79762-3 0 9992 2 43682 98.8773 173.4548 0027875 347.5114 12.5432 15.37052057391468
UTC large
Height (km)
Speed (km/s)
/
Latitude / Longitude
Inclination (degrees)
Orbital Period (minutes)
Azimuth
Elevation
Range (km)
Doppler Factor

Next 0 passes for location: London (51.5072 / 0.1276)

Sorry there are no passes over London.